Home   Weather   Kuopio   Past weeks

Flag for Finland Past Weather in Kuopio, Finland — Yesterday and Last 2 Weeks

Now
21 °F

Light snow. Overcast.


Feels Like: 12 °F
Forecast: 21 / 26 °F
Wind: 8 mph from Northwest

Location: Kuopio Airport

Current Time: Dec 2, 2016 at 7:55:57 pm

Latest Report: Dec 2, 2016 at 7:20 pm


Visibility: 1 mi

Pressure: 29.59 "Hg

Humidity: 93%

Dew Point: 19 °F

Location of KuopioLocation

Past Weather in Kuopio — Graph

°F

Kuopio Temperature Yesterday

Maximum temperature yesterday: 30 °F (at 12:20 am)
Minimum temperature yesterday: 27 °F (at 5:20 pm)
Average temperature yesterday: 29 °F

High & Low Weather Summary for the Past Weeks

 TemperatureHumidityPressure
High43 °F (Nov 21, 6:50 pm)100% (Nov 17, 6:20 pm)30.09 "Hg (Nov 17, 6:20 pm)
Low5 °F (Nov 29, 6:20 am)75% (Nov 25, 12:50 pm)28.94 "Hg (Nov 26, 5:50 pm)
Average30 °F93%29.65 "Hg
* Reported Nov 17 6:20 pm — Dec 2 6:20 pm, Kuopio, Weather by CustomWeather, © 2016

Note: Actual official high and low records may vary slightly from our data, if they occured in-between our weather recording intervals... More about our weather records

Advertising

Kuopio Weather History for the Previous 24 Hours

Scroll right to see more
 ConditionsComfort  
Time TempWeatherWind HumidityBarometerVisibility
6:20 pm
Fri, Dec 2
21 °FLight snow. Overcast.9 mph93%29.59 "HgN/A
5:50 pm21 °FLight snow. Passing clouds.10 mph93%29.59 "HgN/A
5:20 pm21 °FLight snow. Mostly cloudy.12 mph93%29.56 "HgN/A
4:50 pm23 °FLight snow. Mostly cloudy.13 mph86%29.56 "Hg3 mi
4:20 pm23 °FLight snow. Overcast.12 mph93%29.56 "HgN/A
3:50 pm23 °FLight snow. Mostly cloudy.14 mph93%29.53 "Hg4 mi
3:20 pm25 °FSnow flurries. Mostly cloudy.12 mph93%29.53 "HgN/A
2:50 pm27 °FSnow flurries. Low clouds.16 mph86%29.53 "HgN/A
2:20 pm27 °FLight snow. Low clouds.12 mph93%29.53 "HgN/A
1:50 pm27 °FSnow flurries. Overcast.12 mph93%29.50 "HgN/A
1:20 pm27 °FSnow flurries. Low clouds.13 mph93%29.50 "Hg4 mi
12:50 pm27 °FSnow flurries. Overcast.9 mph93%29.50 "HgN/A
12:20 pm27 °FLight snow. Broken clouds.10 mph93%29.50 "HgN/A
11:50 am27 °FLight snow. Broken clouds.9 mph93%29.50 "HgN/A
11:20 am27 °FLight snow. More clouds than sun.8 mph93%29.47 "Hg5 mi
10:20 am27 °FLight snow. Mostly cloudy.9 mph93%29.47 "Hg2 mi
9:50 am27 °FLight snow. Low clouds.8 mph93%29.45 "Hg1 mi
9:20 am25 °FSnow. Broken clouds.8 mph100%29.45 "Hg1 mi
8:20 am25 °FOvercast.9 mph93%29.42 "HgN/A
7:50 am25 °FSnow flurries. Overcast.9 mph93%29.42 "HgN/A
7:20 am25 °FIce fog.8 mph93%29.42 "Hg3 mi
6:50 am25 °FSnow flurries. Overcast.7 mph93%29.42 "HgN/A
6:20 am25 °FLight snow. Overcast.6 mph93%29.42 "HgN/A
5:50 am23 °FSnow flurries. Low clouds.5 mph100%29.39 "HgN/A
5:20 am23 °FSnow flurries. Low clouds.6 mph100%29.39 "HgN/A
4:50 am23 °FLow clouds.7 mph100%29.39 "HgN/A
4:20 am25 °FLow clouds.7 mph93%29.39 "HgN/A
3:50 am25 °FLow clouds.8 mph93%29.36 "HgN/A
3:20 am25 °FSnow flurries. Low clouds.7 mph93%29.36 "HgN/A
2:50 am25 °FIce fog.7 mph93%29.36 "Hg3 mi
2:20 am25 °FSnow showers. Low clouds.5 mph93%29.36 "Hg1 mi
1:50 am25 °FSnow showers. Low clouds.6 mph100%29.36 "Hg1 mi
1:20 am25 °FSnow flurries. Low clouds.7 mph93%29.33 "Hg1 mi
12:50 am25 °FLight snow. Low clouds.8 mph93%29.33 "HgN/A
12:20 am27 °FLow clouds.3 mph93%29.33 "HgN/A
11:50 pm
Thu, Dec 1
27 °FLow clouds.3 mph93%29.33 "HgN/A
11:20 pm27 °FLow clouds.3 mph93%29.30 "HgN/A
10:50 pm27 °FLow clouds.5 mph93%29.30 "HgN/A
10:20 pm27 °FLow clouds.5 mph93%29.30 "HgN/A
9:50 pm27 °FOvercast.2 mph93%29.30 "HgN/A
9:20 pm27 °FOvercast.3 mph86%29.30 "HgN/A
8:50 pm27 °FOvercast.5 mph86%29.27 "HgN/A
8:20 pm27 °FOvercast.3 mph93%29.27 "HgN/A
7:50 pm27 °FOvercast.3 mph93%29.27 "HgN/A
7:20 pm27 °FOvercast.6 mph93%29.27 "HgN/A
Weather by CustomWeather, © 2016

See weather overviewHow to use our weather pages